Location: Baller�as
(41.9020°N, 0.1554°W)
Time: 01:02:42
(UTC+00:00)

Lacrosse 5 - Pass Details

Date: 10 August 2020
Orbit: 716 x 722 km, 57.0° (Epoch: 21 September)

Event Time Altitude Azimuth Distance (km) Brightness Sun altitude
Rises 21:32:47 0° 317° (NW) 3,132 6.7 -22.9°
Reaches altitude 10° 21:35:17 10° 324° (NW) 2,210 5.5 -23.2°
Maximum altitude 21:40:08 43° 36° (NE) 1,002 2.6 -23.7°
Enters shadow 21:41:14 38° 69° (ENE) 1,096 2.6 -23.9°
